Weather History for Portage Glacier, AK

Change the Weather History Date:

Tuesday, November 5, 2013

  Actual Average Record
Temperature  
Mean Temperature 37 °F -  
Max Temperature 39 °F - - ()
Min Temperature 34 °F - - ()
Degree Days  
Heating Degree Days 28    
Moisture  
Dew Point 31 °F    
Average Humidity 81    
Maximum Humidity 100    
Minimum Humidity 57    
Precipitation  
Precipitation 0.00 in - - ()
Sea Level Pressure  
Sea Level Pressure 29.68 in    
Wind  
Wind Speed 5 mph (WNW)    
Max Wind Speed 13 mph    
Max Gust Speed 22 mph    
Visibility 10 miles    
Events      
T = Trace of Precipitation, MM = Missing Value Source: NWS Daily Summary

Daily Weather History Graph

Daily Weather History Graph

Search for Another Location

Airport:

Trip Planner

Search our weather history database for the weather conditions in past years. The results will help you decide how hot, cold, wet, or windy it might be!

Date:

Astronomy

Nov. 05, 2013 Rise Set
Actual Time 8:33 AM AKST 4:43 PM AKST
Civil Twilight 7:45 AM AKST 5:31 PM AKST
Nautical Twilight 6:53 AM AKST 6:22 PM AKST
Astronomical Twilight 6:04 AM AKST 7:12 PM AKST
Moon 11:26 AM AKST (11/5) 6:26 PM AKST (11/5)
Length of Visible Light 9h 46m
Length of Day
8h 10m
Waxing Crescent, 7% of the Moon is Illuminated
Nov 5
Waxing Crescent
Nov 9
First Quarter
Nov 17
Full
Nov 25
Last Quarter
Dec 2
New

Hourly Weather History & Observations

Time (AKST) Temp. Windchill Dew Point Humidity Pressure Visibility Wind Dir Wind Speed Gust Speed Precip Events Conditions
12:53 AM 37.0 °F 32.4 °F 36.0 °F 96% 29.37 in 10.0 mi WNW 5.8 mph - N/A   Overcast
1:53 AM 37.0 °F 34.5 °F 35.1 °F 93% 29.40 in 10.0 mi WNW 3.5 mph - N/A   Overcast
2:53 AM 35.1 °F 32.2 °F 34.0 °F 96% 29.43 in 10.0 mi West 3.5 mph - N/A   Overcast
3:53 AM 37.0 °F 33.3 °F 34.0 °F 89% 29.45 in 10.0 mi NW 4.6 mph - N/A   Overcast
4:53 AM 35.1 °F 32.2 °F 33.1 °F 92% 29.48 in 10.0 mi West 3.5 mph - N/A   Overcast
5:53 AM 35.1 °F - 34.0 °F 96% 29.51 in 10.0 mi Calm Calm - N/A   Overcast
6:53 AM 35.1 °F - 35.1 °F 100% 29.55 in 10.0 mi Calm Calm - N/A   Overcast
7:53 AM 35.1 °F - 35.1 °F 100% 29.57 in 10.0 mi Calm Calm - N/A   Overcast
8:53 AM 35.1 °F - 35.1 °F 100% 29.61 in 10.0 mi Calm Calm - N/A   Overcast
9:53 AM 36.0 °F - 35.1 °F 97% 29.64 in 10.0 mi Calm Calm - 0.00 in   Overcast
10:53 AM 37.9 °F 35.5 °F 35.1 °F 89% 29.66 in 10.0 mi Variable 3.5 mph - N/A   Overcast
11:53 AM 39.0 °F 34.8 °F 36.0 °F 89% 29.69 in 10.0 mi WNW 5.8 mph - N/A   Overcast
12:53 PM 39.0 °F 34.0 °F 35.1 °F 86% 29.71 in 10.0 mi WNW 6.9 mph - N/A   Mostly Cloudy
1:53 PM 39.9 °F 35.1 °F 35.1 °F 83% 29.72 in 10.0 mi West 6.9 mph - N/A   Mostly Cloudy
2:53 PM 39.0 °F 34.0 °F 33.1 °F 79% 29.74 in 10.0 mi WNW 6.9 mph - N/A   Mostly Cloudy
3:53 PM 39.0 °F 33.4 °F 30.0 °F 70% 29.76 in 10.0 mi West 8.1 mph - N/A   Mostly Cloudy
4:53 PM 37.9 °F 31.5 °F 27.0 °F 65% 29.79 in 10.0 mi West 9.2 mph - N/A   Clear
5:53 PM 37.9 °F 31.5 °F 25.0 °F 60% 29.81 in 10.0 mi West 9.2 mph 17.3 mph N/A   Clear
6:53 PM 37.0 °F 29.3 °F 24.1 °F 59% 29.83 in 10.0 mi West 11.5 mph 19.6 mph N/A   Clear
7:53 PM 36.0 °F 28.5 °F 24.1 °F 62% 29.85 in 10.0 mi West 10.4 mph - N/A   Clear
8:53 PM 36.0 °F 28.0 °F 23.0 °F 59% 29.87 in 10.0 mi West 11.5 mph 20.7 mph N/A   Clear
9:53 PM 35.1 °F 26.9 °F 23.0 °F 61% 29.90 in 10.0 mi WNW 11.5 mph 19.6 mph N/A   Clear
10:53 PM 35.1 °F 26.4 °F 21.0 °F 57% 29.93 in 10.0 mi West 12.7 mph 21.9 mph N/A   Clear
11:53 PM 34.0 °F 26.6 °F 21.9 °F 61% 29.94 in 10.0 mi West 9.2 mph - N/A   Clear